Terug naar catalogus

ARIANE 2 DEB

LostGTO
NORAD 27041·DEBRIS·🇫🇷 France

Gelanceerd Jan 27, 1989 vanaf Guiana Space Centre

Loading…

TLE

VerouderdSource: Space-Track

Epoch: Oct 17, 2023, 08:23 UTC

1 27041U 89006W   23290.34998944  .00001042  00000-0  68057-2 0  9998
2 27041   8.5600  58.0983 7185968 120.6016 328.4179  2.27891068 28353

Volg ARIANE 2 DEB in realtime met AllMySat

Download on the App Store